#Datum;Uhrzeit;WR;Pac;DaySum;Status;WR;Pac;DaySum;Status;Pdc1;Udc;Temp;WR;Pac;DaySum;Status;Pdc1;Udc;Temp;WR;Pac;DaySum;Status;Pdc1;Udc;Temp;WR;Pac;DaySum;Status;Pdc1;Pdc2;Udc1;Udc2;Temp;WR;Pac;DaySum;Status;Pdc1;Pdc2;Udc1;Udc2;Temp;WR;Pac;DaySum;Status;Pdc1;Udc;Temp;WR;Pac;DaySum;Status;Pdc1;Udc;Temp;WR;Pac;DaySum;Status;Pdc1;Udc;Temp
18.02.20;23:55:00;1;239;9834;0;2;0;8170;0;0;0;0;3;0;5052;0;0;0;0;4;0;7031;0;0;0;0;5;0;16252;0;0;0;0;0;0;6;0;12045;0;0;0;0;0;0;7;0;9478;0;0;0;0;8;0;9312;0;0;0;0;9;0;5094;0;0;0;0
18.02.20;23:50:00;1;238;9814;0;2;0;8170;0;0;0;0;3;0;5052;0;0;0;0;4;0;7031;0;0;0;0;5;0;16252;0;0;0;0;0;0;6;0;12045;0;0;0;0;0;0;7;0;9478;0;0;0;0;8;0;9312;0;0;0;0;9;0;5094;0;0;0;0
18.02.20;23:45:00;1;239;9794;0;2;0;8170;0;0;0;0;3;0;5052;0;0;0;0;4;0;7031;0;0;0;0;5;0;16252;0;0;0;0;0;0;6;0;12045;0;0;0;0;0;0;7;0;9478;0;0;0;0;8;0;9312;0;0;0;0;9;0;5094;0;0;0;0
18.02.20;23:40:00;1;240;9774;0;2;0;8170;0;0;0;0;3;0;5052;0;0;0;0;4;0;7031;0;0;0;0;5;0;16252;0;0;0;0;0;0;6;0;12045;0;0;0;0;0;0;7;0;9478;0;0;0;0;8;0;9312;0;0;0;0;9;0;5094;0;0;0;0
18.02.20;23:35:00;1;291;9754;0;2;0;8170;0;0;0;0;3;0;5052;0;0;0;0;4;0;7031;0;0;0;0;5;0;16252;0;0;0;0;0;0;6;0;12045;0;0;0;0;0;0;7;0;9478;0;0;0;0;8;0;9312;0;0;0;0;9;0;5094;0;0;0;0
18.02.20;23:30:00;1;241;9729;0;2;0;8170;0;0;0;0;3;0;5052;0;0;0;0;4;0;7031;0;0;0;0;5;0;16252;0;0;0;0;0;0;6;0;12045;0;0;0;0;0;0;7;0;9478;0;0;0;0;8;0;9312;0;0;0;0;9;0;5094;0;0;0;0
18.02.20;23:25:00;1;260;9709;0;2;0;8170;0;0;0;0;3;0;5052;0;0;0;0;4;0;7031;0;0;0;0;5;0;16252;0;0;0;0;0;0;6;0;12045;0;0;0;0;0;0;7;0;9478;0;0;0;0;8;0;9312;0;0;0;0;9;0;5094;0;0;0;0
18.02.20;23:20:00;1;285;9687;0;2;0;8170;0;0;0;0;3;0;5052;0;0;0;0;4;0;7031;0;0;0;0;5;0;16252;0;0;0;0;0;0;6;0;12045;0;0;0;0;0;0;7;0;9478;0;0;0;0;8;0;9312;0;0;0;0;9;0;5094;0;0;0;0
18.02.20;23:15:00;1;285;9663;0;2;0;8170;0;0;0;0;3;0;5052;0;0;0;0;4;0;7031;0;0;0;0;5;0;16252;0;0;0;0;0;0;6;0;12045;0;0;0;0;0;0;7;0;9478;0;0;0;0;8;0;9312;0;0;0;0;9;0;5094;0;0;0;0
18.02.20;23:10:00;1;300;9640;0;2;0;8170;0;0;0;0;3;0;5052;0;0;0;0;4;0;7031;0;0;0;0;5;0;16252;0;0;0;0;0;0;6;0;12045;0;0;0;0;0;0;7;0;9478;0;0;0;0;8;0;9312;0;0;0;0;9;0;5094;0;0;0;0
18.02.20;23:05:00;1;283;9618;0;2;0;8170;0;0;0;0;3;0;5052;0;0;0;0;4;0;7031;0;0;0;0;5;0;16252;0;0;0;0;0;0;6;0;12045;0;0;0;0;0;0;7;0;9478;0;0;0;0;8;0;9312;0;0;0;0;9;0;5094;0;0;0;0
18.02.20;23:00:00;1;258;9595;0;2;0;8170;0;0;0;0;3;0;5052;0;0;0;0;4;0;7031;0;0;0;0;5;0;16252;0;0;0;0;0;0;6;0;12045;0;0;0;0;0;0;7;0;9478;0;0;0;0;8;0;9312;0;0;0;0;9;0;5094;0;0;0;0
18.02.20;22:55:00;1;245;9573;0;2;0;8170;0;0;0;0;3;0;5052;0;0;0;0;4;0;7031;0;0;0;0;5;0;16252;2;0;0;0;0;0;6;0;12045;2;0;0;0;0;0;7;0;9478;0;0;0;0;8;0;9312;0;0;0;0;9;0;5094;0;0;0;0
18.02.20;22:50:00;1;246;9553;0;2;0;8170;0;0;0;0;3;0;5052;0;0;0;0;4;0;7031;0;0;0;0;5;0;16252;2;0;0;0;0;0;6;0;12045;2;0;0;0;0;0;7;0;9478;0;0;0;0;8;0;9312;0;0;0;0;9;0;5094;0;0;0;0
18.02.20;22:45:00;1;947;9532;0;2;0;8170;0;0;0;0;3;0;5052;0;0;0;0;4;0;7031;0;0;0;0;5;0;16252;2;0;0;0;0;0;6;0;12045;2;0;0;0;0;0;7;0;9478;0;0;0;0;8;0;9312;0;0;0;0;9;0;5094;0;0;0;0
18.02.20;22:40:00;1;2169;9448;0;2;0;8170;0;0;0;0;3;0;5052;0;0;0;0;4;0;7031;0;0;0;0;5;0;16252;2;0;0;0;0;0;6;0;12045;2;0;0;0;0;0;7;0;9478;0;0;0;0;8;0;9312;0;0;0;0;9;0;5094;0;0;0;0
18.02.20;22:35:00;1;2221;9267;0;2;0;8170;0;0;0;0;3;0;5052;0;0;0;0;4;0;7031;0;0;0;0;5;0;16252;2;0;0;0;0;0;6;0;12045;2;0;0;0;0;0;7;0;9478;0;0;0;0;8;0;9312;0;0;0;0;9;0;5094;0;0;0;0
18.02.20;22:30:00;1;1724;9081;0;2;0;8170;0;0;0;0;3;0;5052;0;0;0;0;4;0;7031;0;0;0;0;5;0;16252;2;0;0;0;0;0;6;0;12045;2;0;0;0;0;0;7;0;9478;0;0;0;0;8;0;9312;0;0;0;0;9;0;5094;0;0;0;0
18.02.20;22:25:00;1;1938;8979;0;2;0;8170;0;0;0;0;3;0;5052;0;0;0;0;4;0;7031;0;0;0;0;5;0;16252;2;0;0;0;0;0;6;0;12045;2;0;0;0;0;0;7;0;9478;0;0;0;0;8;0;9312;0;0;0;0;9;0;5094;0;0;0;0
18.02.20;22:20:00;1;340;8836;0;2;0;8170;0;0;0;0;3;0;5052;0;0;0;0;4;0;7031;0;0;0;0;5;0;16252;2;0;0;0;0;0;6;0;12045;2;0;0;0;0;0;7;0;9478;0;0;0;0;8;0;9312;0;0;0;0;9;0;5094;0;0;0;0
18.02.20;22:15:00;1;380;8807;0;2;0;8170;0;0;0;0;3;0;5052;0;0;0;0;4;0;7031;0;0;0;0;5;0;16252;2;0;0;0;0;0;6;0;12045;2;0;0;0;0;0;7;0;9478;0;0;0;0;8;0;9312;0;0;0;0;9;0;5094;0;0;0;0
18.02.20;22:10:00;1;925;8775;0;2;0;8170;0;0;0;0;3;0;5052;0;0;0;0;4;0;7031;0;0;0;0;5;0;16252;2;0;0;0;0;0;6;0;12045;2;0;0;0;0;0;7;0;9478;0;0;0;0;8;0;9312;0;0;0;0;9;0;5094;0;0;0;0
18.02.20;22:05:00;1;1517;8662;0;2;0;8170;0;0;0;0;3;0;5052;0;0;0;0;4;0;7031;0;0;0;0;5;0;16252;2;0;0;0;0;0;6;0;12045;2;0;0;0;0;0;7;0;9478;0;0;0;0;8;0;9312;0;0;0;0;9;0;5094;0;0;0;0
18.02.20;22:00:00;1;759;8541;0;2;0;8170;0;0;0;0;3;0;5052;0;0;0;0;4;0;7031;0;0;0;0;5;0;16252;2;0;0;0;0;0;6;0;12045;2;0;0;0;0;0;7;0;9478;0;0;0;0;8;0;9312;0;0;0;0;9;0;5094;0;0;0;0
18.02.20;21:55:00;1;2058;8462;0;2;0;8170;0;0;0;0;3;0;5052;0;0;0;0;4;0;7031;0;0;0;0;5;0;16252;2;0;0;0;0;0;6;0;12045;2;0;0;0;0;0;7;0;9478;0;0;0;0;8;0;9312;0;0;0;0;9;0;5094;0;0;0;0
18.02.20;21:50:00;1;1348;8317;0;2;0;8170;0;0;0;0;3;0;5052;0;0;0;0;4;0;7031;0;0;0;0;5;0;16252;2;0;0;0;0;0;6;0;12045;2;0;0;0;0;0;7;0;9478;0;0;0;0;8;0;9312;0;0;0;0;9;0;5094;0;0;0;0
18.02.20;21:45:00;1;2456;8172;0;2;0;8170;0;0;0;0;3;0;5052;0;0;0;0;4;0;7031;0;0;0;0;5;0;16252;2;0;0;0;0;0;6;0;12045;2;0;0;0;0;0;7;0;9478;0;0;0;0;8;0;9312;0;0;0;0;9;0;5094;0;0;0;0
18.02.20;21:40:00;1;971;7968;0;2;0;8170;0;0;0;0;3;0;5052;0;0;0;0;4;0;7031;0;0;0;0;5;0;16252;2;0;0;0;0;0;6;0;12045;2;0;0;0;0;0;7;0;9478;0;0;0;0;8;0;9312;0;0;0;0;9;0;5094;0;0;0;0
18.02.20;21:35:00;1;542;7902;0;2;0;8170;0;0;0;0;3;0;5052;0;0;0;0;4;0;7031;0;0;0;0;5;0;16252;2;0;0;0;0;0;6;0;12045;2;0;0;0;0;0;7;0;9478;0;0;0;0;8;0;9312;0;0;0;0;9;0;5094;0;0;0;0
18.02.20;21:30:00;1;646;7854;0;2;0;8170;0;0;0;0;3;0;5052;0;0;0;0;4;0;7031;0;0;0;0;5;0;16252;2;0;0;0;0;0;6;0;12045;2;0;0;0;0;0;7;0;9478;0;0;0;0;8;0;9312;0;0;0;0;9;0;5094;0;0;0;0
18.02.20;21:25:00;1;606;7799;0;2;0;8170;0;0;0;0;3;0;5052;0;0;0;0;4;0;7031;0;0;0;0;5;0;16252;2;0;0;0;0;0;6;0;12045;2;0;0;0;0;0;7;0;9478;0;0;0;0;8;0;9312;0;0;0;0;9;0;5094;0;0;0;0
18.02.20;21:20:00;1;291;7750;0;2;0;8170;0;0;0;0;3;0;5052;0;0;0;0;4;0;7031;0;0;0;0;5;0;16252;2;0;0;0;0;0;6;0;12045;2;0;0;0;0;0;7;0;9478;0;0;0;0;8;0;9312;0;0;0;0;9;0;5094;0;0;0;0
18.02.20;21:15:00;1;243;7729;0;2;0;8170;0;0;0;0;3;0;5052;0;0;0;0;4;0;7031;0;0;0;0;5;0;16252;2;0;0;0;0;0;6;0;12045;2;0;0;0;0;0;7;0;9478;0;0;0;0;8;0;9312;0;0;0;0;9;0;5094;0;0;0;0
18.02.20;21:10:00;1;242;7708;0;2;0;8170;0;0;0;0;3;0;5052;0;0;0;0;4;0;7031;0;0;0;0;5;0;16252;2;0;0;0;0;0;6;0;12045;2;0;0;0;0;0;7;0;9478;0;0;0;0;8;0;9312;0;0;0;0;9;0;5094;0;0;0;0
18.02.20;21:05:00;1;242;7688;0;2;0;8170;0;0;0;0;3;0;5052;0;0;0;0;4;0;7031;0;0;0;0;5;0;16252;2;0;0;0;0;0;6;0;12045;2;0;0;0;0;0;7;0;9478;0;0;0;0;8;0;9312;0;0;0;0;9;0;5094;0;0;0;0
18.02.20;21:00:00;1;267;7668;0;2;0;8170;0;0;0;0;3;0;5052;0;0;0;0;4;0;7031;0;0;0;0;5;0;16252;2;0;0;0;0;0;6;0;12045;2;0;0;0;0;0;7;0;9478;0;0;0;0;8;0;9312;0;0;0;0;9;0;5094;0;0;0;0
18.02.20;20:55:00;1;340;7645;0;2;0;8170;0;0;0;0;3;0;5052;0;0;0;0;4;0;7031;0;0;0;0;5;0;16252;2;0;0;0;0;0;6;0;12045;2;0;0;0;0;0;7;0;9478;0;0;0;0;8;0;9312;0;0;0;0;9;0;5094;0;0;0;0
18.02.20;20:50:00;1;286;7617;0;2;0;8170;0;0;0;0;3;0;5052;0;0;0;0;4;0;7031;0;0;0;0;5;0;16252;2;0;0;0;0;0;6;0;12045;2;0;0;0;0;0;7;0;9478;0;0;0;0;8;0;9312;0;0;0;0;9;0;5094;0;0;0;0
18.02.20;20:45:00;1;262;7593;0;2;0;8170;0;0;0;0;3;0;5052;0;0;0;0;4;0;7031;0;0;0;0;5;0;16252;2;0;0;0;0;0;6;0;12045;2;0;0;0;0;0;7;0;9478;0;0;0;0;8;0;9312;0;0;0;0;9;0;5094;0;0;0;0
18.02.20;20:40:00;1;276;7570;0;2;0;8170;0;0;0;0;3;0;5052;0;0;0;0;4;0;7031;0;0;0;0;5;0;16252;2;0;0;0;0;0;6;0;12045;2;0;0;0;0;0;7;0;9478;0;0;0;0;8;0;9312;0;0;0;0;9;0;5094;0;0;0;0
18.02.20;20:35:00;1;276;7547;0;2;0;8170;0;0;0;0;3;0;5052;0;0;0;0;4;0;7031;0;0;0;0;5;0;16252;2;0;0;0;0;0;6;0;12045;2;0;0;0;0;0;7;0;9478;0;0;0;0;8;0;9312;0;0;0;0;9;0;5094;0;0;0;0
18.02.20;20:30:00;1;266;7524;0;2;0;8170;0;0;0;0;3;0;5052;0;0;0;0;4;0;7031;0;0;0;0;5;0;16252;2;0;0;0;0;0;6;0;12045;2;0;0;0;0;0;7;0;9478;0;0;0;0;8;0;9312;0;0;0;0;9;0;5094;0;0;0;0
18.02.20;20:25:00;1;274;7503;0;2;0;8170;0;0;0;0;3;0;5052;0;0;0;0;4;0;7031;0;0;0;0;5;0;16252;2;0;0;0;0;0;6;0;12045;2;0;0;0;0;0;7;0;9478;0;0;0;0;8;0;9312;0;0;0;0;9;0;5094;0;0;0;0
18.02.20;20:20:00;1;242;7480;0;2;0;8170;0;0;0;0;3;0;5052;0;0;0;0;4;0;7031;0;0;0;0;5;0;16252;2;0;0;0;0;0;6;0;12045;2;0;0;0;0;0;7;0;9478;0;0;0;0;8;0;9312;0;0;0;0;9;0;5094;0;0;0;0
18.02.20;20:15:00;1;287;7460;0;2;0;8170;0;0;0;0;3;0;5052;0;0;0;0;4;0;7031;0;0;0;0;5;0;16252;2;0;0;0;0;0;6;0;12045;2;0;0;0;0;0;7;0;9478;0;0;0;0;8;0;9312;0;0;0;0;9;0;5094;0;0;0;0
18.02.20;20:10:00;1;538;7434;0;2;0;8170;0;0;0;0;3;0;5052;0;0;0;0;4;0;7031;0;0;0;0;5;0;16252;2;0;0;0;0;0;6;0;12045;2;0;0;0;0;0;7;0;9478;0;0;0;0;8;0;9312;0;0;0;0;9;0;5094;0;0;0;0
18.02.20;20:05:00;1;739;7383;0;2;0;8170;0;0;0;0;3;0;5052;0;0;0;0;4;0;7031;0;0;0;0;5;0;16252;2;0;0;0;0;0;6;0;12045;2;0;0;0;0;0;7;0;9478;0;0;0;0;8;0;9312;0;0;0;0;9;0;5094;0;0;0;0
18.02.20;20:00:00;1;823;7321;0;2;0;8170;0;0;0;0;3;0;5052;0;0;0;0;4;0;7031;0;0;0;0;5;0;16252;2;0;0;0;0;0;6;0;12045;2;0;0;0;0;0;7;0;9478;0;0;0;0;8;0;9312;0;0;0;0;9;0;5094;0;0;0;0
18.02.20;19:55:00;1;800;7253;0;2;0;8170;0;0;0;0;3;0;5052;0;0;0;0;4;0;7031;0;0;0;0;5;0;16252;2;0;0;0;0;0;6;0;12045;2;0;0;0;0;0;7;0;9478;0;0;0;0;8;0;9312;0;0;0;0;9;0;5094;0;0;0;0
18.02.20;19:50:00;1;961;7185;0;2;0;8170;0;0;0;0;3;0;5052;0;0;0;0;4;0;7031;0;0;0;0;5;0;16252;2;0;0;0;0;0;6;0;12045;2;0;0;0;0;0;7;0;9478;0;0;0;0;8;0;9312;0;0;0;0;9;0;5094;0;0;0;0
18.02.20;19:45:00;1;806;7104;0;2;0;8170;0;0;0;0;3;0;5052;0;0;0;0;4;0;7031;0;0;0;0;5;0;16252;2;0;0;0;0;0;6;0;12045;2;0;0;0;0;0;7;0;9478;0;0;0;0;8;0;9312;0;0;0;0;9;0;5094;0;0;0;0
18.02.20;19:40:00;1;788;7037;0;2;0;8170;0;0;0;0;3;0;5052;0;0;0;0;4;0;7031;0;0;0;0;5;0;16252;2;0;0;0;0;0;6;0;12045;2;0;0;0;0;0;7;0;9478;0;0;0;0;8;0;9312;0;0;0;0;9;0;5094;0;0;0;0
18.02.20;19:35:00;1;789;6971;0;2;0;8170;0;0;0;0;3;0;5052;0;0;0;0;4;0;7031;0;0;0;0;5;0;16252;2;0;0;0;0;0;6;0;12045;2;0;0;0;0;0;7;0;9478;0;0;0;0;8;0;9312;0;0;0;0;9;0;5094;0;0;0;0
18.02.20;19:30:00;1;745;6905;0;2;0;8170;0;0;0;0;3;0;5052;0;0;0;0;4;0;7031;0;0;0;0;5;0;16252;2;0;0;0;0;0;6;0;12045;2;0;0;0;0;0;7;0;9478;0;0;0;0;8;0;9312;0;0;0;0;9;0;5094;0;0;0;0
18.02.20;19:25:00;1;750;6844;0;2;0;8170;0;0;0;0;3;0;5052;0;0;0;0;4;0;7031;0;0;0;0;5;0;16252;2;0;0;0;0;0;6;0;12045;2;0;0;0;0;0;7;0;9478;0;0;0;0;8;0;9312;0;0;0;0;9;0;5094;0;0;0;0
18.02.20;19:20:00;1;1006;6779;0;2;0;8170;0;0;0;0;3;0;5052;0;0;0;0;4;0;7031;0;0;0;0;5;0;16252;2;0;0;0;0;0;6;0;12045;2;0;0;0;0;0;7;0;9478;0;0;0;0;8;0;9312;0;0;0;0;9;0;5094;0;0;0;0
18.02.20;19:15:00;1;907;6694;0;2;0;8170;0;0;0;0;3;0;5052;0;0;0;0;4;0;7031;0;0;0;0;5;0;16252;2;0;0;0;0;0;6;0;12045;2;0;0;0;0;0;7;0;9478;0;0;0;0;8;0;9312;0;0;0;0;9;0;5094;0;0;0;0
18.02.20;19:10:00;1;841;6621;0;2;0;8170;0;0;0;0;3;0;5052;0;0;0;0;4;0;7031;0;0;0;0;5;0;16252;2;0;0;0;0;0;6;0;12045;2;0;0;0;0;0;7;0;9478;0;0;0;0;8;0;9312;0;0;0;0;9;0;5094;0;0;0;0
18.02.20;19:05:00;1;1036;6545;0;2;0;8170;0;0;0;0;3;0;5052;0;0;0;0;4;0;7031;0;0;0;0;5;0;16252;2;0;0;0;0;0;6;0;12045;2;0;0;0;0;0;7;0;9478;0;0;0;0;8;0;9312;0;0;0;0;9;0;5094;0;0;0;0
18.02.20;19:00:00;1;767;6466;0;2;0;8170;0;0;0;0;3;0;5052;0;0;0;0;4;0;7031;0;0;0;0;5;0;16252;2;0;0;0;0;0;6;0;12045;2;0;0;0;0;0;7;0;9478;0;0;0;0;8;0;9312;0;0;0;0;9;0;5094;0;0;0;0
18.02.20;18:55:00;1;962;6400;0;2;0;8170;0;0;0;0;3;0;5052;0;0;0;0;4;0;7031;0;0;0;0;5;0;16252;2;0;0;0;0;0;6;0;12045;2;0;0;0;0;0;7;0;9478;0;0;0;0;8;0;9312;0;0;0;0;9;0;5094;0;0;0;0
18.02.20;18:50:00;1;1005;6320;0;2;0;8170;0;0;0;0;3;0;5052;0;0;0;0;4;0;7031;0;0;0;0;5;0;16252;2;0;0;0;0;0;6;0;12045;2;0;0;0;0;0;7;0;9478;0;0;0;0;8;0;9312;0;0;0;0;9;0;5094;0;0;0;0
18.02.20;18:45:00;1;948;6237;0;2;0;8170;0;0;0;0;3;0;5052;0;0;0;0;4;0;7031;0;0;0;0;5;0;16252;2;0;0;0;0;0;6;0;12045;2;0;0;0;0;0;7;0;9478;0;0;0;0;8;0;9312;0;0;0;0;9;0;5094;0;0;0;0
18.02.20;18:40:00;1;928;6158;0;2;0;8170;0;0;0;0;3;0;5052;0;0;0;0;4;0;7031;0;0;0;0;5;0;16252;2;0;0;0;0;0;6;0;12045;2;0;0;0;0;0;7;0;9478;0;0;0;0;8;0;9312;0;0;0;0;9;0;5094;0;0;0;0
18.02.20;18:35:00;1;932;6081;0;2;0;8170;0;0;0;0;3;0;5052;0;0;0;0;4;0;7031;0;0;0;0;5;0;16252;2;0;0;0;0;0;6;0;12045;2;0;0;0;0;0;7;0;9478;0;0;0;0;8;0;9312;0;0;0;0;9;0;5094;0;0;0;0
18.02.20;18:30:00;1;959;6002;0;2;0;8170;0;0;0;0;3;0;5052;0;0;0;0;4;0;7031;0;0;0;0;5;0;16252;2;0;0;0;0;0;6;0;12045;2;0;0;0;0;0;7;0;9478;0;0;0;0;8;0;9312;0;0;0;0;9;0;5094;0;0;0;0
18.02.20;18:25:00;1;907;5923;0;2;0;8170;0;0;0;0;3;0;5052;0;0;0;0;4;0;7031;0;0;0;0;5;0;16252;2;0;0;0;0;0;6;0;12045;2;0;0;0;0;0;7;0;9478;0;0;0;0;8;0;9312;0;0;0;0;9;0;5094;0;0;0;0
18.02.20;18:20:00;1;789;5849;0;2;0;8170;0;0;0;0;3;0;5052;0;0;0;0;4;0;7031;0;0;0;0;5;0;16252;2;0;0;0;0;0;6;0;12045;2;0;0;0;0;0;7;0;9478;0;0;0;0;8;0;9312;0;0;0;0;9;0;5094;0;0;0;0
18.02.20;18:15:00;1;753;5780;0;2;0;8170;0;0;0;0;3;0;5052;0;0;0;0;4;0;7031;0;0;0;0;5;0;16252;2;0;0;0;0;0;6;0;12045;2;0;0;0;0;0;7;0;9478;0;0;0;0;8;0;9312;0;0;0;0;9;0;5094;0;0;0;0
18.02.20;18:10:00;1;622;5716;0;2;0;8170;0;0;0;0;3;0;5052;0;0;0;0;4;0;7031;0;0;0;0;5;0;16252;2;0;0;0;0;0;6;0;12045;2;0;0;0;0;0;7;0;9478;0;0;0;0;8;0;9312;0;0;0;0;9;0;5094;0;0;0;0
18.02.20;18:05:00;1;472;5671;0;2;0;8170;0;0;0;0;3;0;5052;0;0;0;0;4;0;7031;0;0;0;0;5;0;16252;2;0;0;0;0;0;6;0;12045;2;0;0;0;0;0;7;0;9478;0;0;0;0;8;0;9312;0;0;0;0;9;0;5094;0;0;0;0
18.02.20;18:00:00;1;486;5632;0;2;0;8170;0;0;0;0;3;0;5052;0;0;0;0;4;0;7031;0;0;0;0;5;0;16252;2;0;0;0;0;0;6;0;12045;2;0;0;0;0;0;7;0;9478;0;0;0;0;8;0;9312;0;0;0;0;9;0;5094;0;0;0;0
18.02.20;17:55:00;1;486;5591;0;2;0;8170;0;0;110;6;3;0;5052;0;0;200;13;4;0;7031;0;0;0;0;5;0;16252;2;0;0;0;0;0;6;0;12045;2;0;0;0;0;0;7;0;9478;0;0;0;0;8;0;9312;0;0;0;0;9;0;5094;0;0;0;0
18.02.20;17:50:00;1;487;5551;0;2;0;8170;6;0;296;16;3;0;5052;6;0;336;19;4;0;7031;2;0;73;14;5;0;16252;2;0;0;0;0;0;6;0;12045;2;0;0;0;0;0;7;0;9478;0;0;0;0;8;0;9312;0;0;0;0;9;0;5094;0;0;0;0
18.02.20;17:45:00;1;557;5510;0;2;0;8170;6;0;346;17;3;0;5052;6;1;410;19;4;0;7031;1;0;127;14;5;0;16252;1;0;0;316;316;24;6;0;12045;1;9;2;179;410;23;7;0;9478;0;0;188;12;8;0;9312;0;0;187;11;9;0;5094;0;0;239;10
18.02.20;17:40:00;1;531;5463;0;2;0;8170;6;0;384;17;3;1;5052;6;3;452;19;4;0;7031;1;0;188;15;5;0;16252;26;0;0;412;570;25;6;0;12045;23;6;2;181;546;23;7;0;9478;6;0;374;18;8;0;9312;6;0;375;17;9;0;5094;6;0;381;13
18.02.20;17:35:00;1;521;5418;0;2;0;8170;6;0;403;17;3;2;5052;6;5;484;19;4;0;7031;1;0;211;15;5;0;16252;1;0;0;426;670;25;6;0;12045;23;7;2;378;574;24;7;0;9478;6;2;411;18;8;0;9312;4;2;408;18;9;1;5094;6;1;453;14
18.02.20;17:30:00;1;429;5375;0;2;4;8170;6;11;402;18;3;1;5052;6;6;504;20;4;0;7031;3;0;213;16;5;73;16251;4;8;6;379;604;26;6;0;12045;23;8;3;462;586;24;7;3;9478;6;5;447;18;8;2;9312;6;5;352;14;9;1;5094;6;3;488;14
18.02.20;17:25:00;1;419;5339;0;2;23;8170;6;39;388;18;3;1;5052;6;6;522;20;4;1;7031;3;1;199;16;5;97;16245;4;26;28;379;604;26;6;34;12045;1;22;15;504;349;25;7;1;9478;6;4;390;15;8;0;9312;6;7;471;18;9;2;5094;6;3;516;14
18.02.20;17:20:00;1;421;5304;0;2;241;8168;4;279;361;19;3;146;5052;4;181;412;20;4;177;7031;3;184;207;16;5;146;16237;4;53;46;379;604;26;6;77;12042;4;45;27;449;226;26;7;30;9477;6;64;448;19;8;21;9312;6;40;418;18;9;1;5094;3;6;531;14
18.02.20;17:15:00;1;459;5269;0;2;180;8148;4;221;386;19;3;23;5039;4;30;560;20;4;159;7016;5;165;210;16;5;170;16224;4;73;50;379;604;26;6;90;12035;4;54;33;449;227;26;7;103;9475;4;133;385;15;8;31;9310;4;62;312;15;9;3;5094;6;8;534;14
18.02.20;17:10:00;1;465;5230;0;2;88;8133;4;124;368;19;3;11;5036;4;18;538;20;4;37;7003;3;38;198;16;5;166;16210;4;61;57;379;604;26;6;82;12027;4;51;28;449;227;26;7;65;9466;4;101;433;19;8;41;9307;4;83;419;19;9;4;5094;6;10;537;15
18.02.20;17:05:00;1;464;5192;0;2;98;8126;4;134;363;19;3;21;5035;6;37;537;21;4;33;7000;3;34;198;16;5;200;16196;4;85;73;379;604;26;6;99;12020;4;48;29;449;227;26;7;63;9461;4;102;443;19;8;57;9303;4;99;424;19;9;12;5093;6;23;508;15
18.02.20;17:00:00;1;454;5153;0;2;183;8118;4;224;382;20;3;104;5033;4;146;498;21;4;115;6997;3;119;220;17;5;331;16179;4;158;132;379;604;26;6;160;12012;4;112;64;449;227;26;7;106;9456;4;146;361;15;8;149;9299;4;188;459;19;9;54;5092;6;74;417;12
18.02.20;16:55:00;1;505;5115;0;2;232;8102;4;274;379;20;3;140;5025;4;180;499;21;4;167;6987;5;174;227;17;5;402;16150;4;194;166;400;604;26;6;199;11998;4;115;67;449;242;26;7;92;9439;0;107;177;7;8;226;9286;4;266;449;19;9;112;5088;4;148;504;16
18.02.20;16:50:00;1;497;5073;0;2;254;8083;4;297;381;20;3;150;5013;4;189;484;22;4;168;6974;5;175;228;17;5;414;16116;4;200;171;391;608;26;6;269;11981;4;130;146;458;458;26;7;249;9427;4;296;456;19;8;235;9267;4;279;467;19;9;86;5078;4;116;409;12
18.02.20;16:45:00;1;517;5031;0;2;478;8062;4;525;373;20;3;272;5001;4;318;481;22;4;322;6959;5;336;231;17;5;610;16076;4;301;247;400;629;27;6;447;11954;4;216;253;482;551;26;7;659;9406;4;712;451;20;8;249;9248;4;276;284;11;9;106;5069;4;142;513;16
18.02.20;16:40:00;1;504;4987;0;2;273;8014;4;318;384;20;3;166;4973;4;207;497;22;4;207;6928;5;215;230;17;5;525;16019;4;264;212;408;610;27;6;396;11914;4;206;220;574;554;26;7;172;9346;4;196;262;12;8;260;9212;4;302;453;19;9;128;5060;4;163;510;17
18.02.20;16:35:00;1;463;4945;0;2;336;7991;4;384;403;21;3;205;4959;4;250;505;22;4;267;6911;5;279;233;17;5;659;15974;4;325;271;406;630;27;6;487;11881;4;217;226;579;556;26;7;378;9323;4;411;454;20;8;361;9190;4;402;457;19;9;153;5046;0;183;413;13
18.02.20;16:30:00;1;505;4906;0;2;344;7964;4;392;400;21;3;211;4943;4;256;510;22;4;274;6889;5;285;231;18;5;674;15919;4;331;281;406;646;27;6;503;11840;4;240;260;574;556;26;7;390;9292;4;441;459;20;8;376;9161;4;422;437;20;9;199;5035;4;235;521;17
18.02.20;16:25:00;1;958;4844;0;2;386;7935;4;435;394;21;3;234;4925;4;284;506;22;4;308;6866;5;320;236;18;5;729;15862;4;368;305;412;633;27;6;545;11797;4;267;275;580;562;26;7;456;9259;4;495;450;20;8;434;9129;4;482;459;20;9;145;5018;4;172;341;11
18.02.20;16:20:00;1;2125;4745;0;2;454;7903;4;506;398;21;3;277;4905;4;325;506;22;4;370;6840;5;385;236;18;5;859;15801;4;432;359;406;670;27;6;635;11752;4;304;310;578;561;26;7;530;9221;4;588;476;20;8;522;9093;4;576;465;20;9;270;5000;4;313;521;17
18.02.20;16:15:00;1;1967;4625;0;2;627;7865;4;684;397;21;3;350;4882;4;402;500;22;4;465;6809;5;485;237;18;5;1074;15727;4;549;449;417;672;27;6;761;11697;4;376;385;582;574;26;7;655;9177;4;695;389;16;8;558;9049;4;603;397;16;9;303;4977;4;344;441;15
18.02.20;16:10:00;1;2582;4446;0;2;478;7812;4;532;401;21;3;295;4853;4;344;511;22;4;404;6771;5;421;236;19;5;964;15638;4;484;400;411;659;27;6;719;11630;4;355;369;587;562;26;7;458;9113;4;502;379;16;8;578;8992;4;627;475;20;9;305;4947;4;351;530;18
18.02.20;16:05:00;1;633;4269;0;2;493;7773;4;547;395;21;3;305;4829;4;355;510;22;4;425;6737;5;442;236;19;5;1037;15558;4;521;438;414;665;27;6;780;11570;4;401;414;592;571;26;7;571;9066;4;624;471;21;8;569;8945;4;621;466;20;9;303;4922;4;349;519;18
18.02.20;16:00:00;1;698;4215;0;2;510;7732;4;564;400;21;3;314;4803;4;366;497;22;4;432;6702;5;450;238;19;5;1043;15471;4;527;441;420;673;27;6;780;11504;4;359;372;585;575;26;7;579;9018;4;629;475;21;8;459;8885;0;501;384;16;9;305;4897;4;351;524;18
18.02.20;15:55:00;1;364;4158;0;2;856;7689;4;921;405;21;3;498;4777;4;556;527;22;4;672;6666;5;699;250;19;5;1476;15381;4;760;625;425;693;28;6;1110;11437;4;559;565;598;573;26;7;831;8969;4;881;398;17;8;964;8849;4;1023;477;21;9;434;4871;4;480;447;15
18.02.20;15:50:00;1;331;4127;0;2;752;7619;4;814;404;21;3;464;4736;4;522;514;22;4;636;6610;5;663;243;19;5;1355;15258;4;703;581;420;685;28;6;1037;11344;4;535;531;600;571;26;7;869;8889;4;940;478;21;8;870;8769;4;928;478;21;9;466;4829;4;518;532;19
18.02.20;15:45:00;1;288;4100;0;2;704;7555;4;764;404;21;3;442;4697;4;498;512;22;4;605;6556;5;630;240;20;5;1312;15145;4;682;554;422;688;28;6;1003;11258;4;504;508;595;567;26;7;787;8816;4;837;470;21;8;778;8696;4;833;475;21;9;420;4790;4;471;523;19
18.02.20;15:40:00;1;299;4076;0;2;568;7496;4;625;397;22;3;354;4660;4;406;497;22;4;485;6506;5;505;233;20;5;1089;15037;4;562;460;415;669;28;6;827;11176;4;411;424;588;557;26;7;653;8750;4;702;470;22;8;650;8631;4;709;462;21;9;349;4756;4;395;522;19
18.02.20;15:35:00;1;222;4050;0;2;648;7449;4;707;397;22;3;398;4630;4;450;504;22;4;548;6465;5;571;240;20;5;1296;14947;4;658;551;413;678;28;6;936;11108;4;473;469;588;566;27;7;705;8696;4;758;477;22;8;712;8577;4;762;461;21;9;386;4726;4;435;522;19
18.02.20;15:30:00;1;220;4031;0;2;792;7395;4;856;403;23;3;497;4597;4;553;506;22;4;676;6420;5;704;242;21;5;1443;14840;4;755;625;421;679;28;6;1114;11027;4;569;578;592;568;27;7;827;8638;4;893;475;22;8;832;8519;4;889;469;22;9;449;4695;4;500;524;19
18.02.20;15:25:00;1;221;4013;0;2;758;7329;4;822;403;23;3;474;4556;4;530;513;22;4;646;6364;5;673;241;21;5;1434;14719;4;747;601;422;683;28;6;1089;10935;4;550;568;587;569;27;7;812;8569;4;863;476;22;8;635;8450;4;680;376;17;9;263;4646;0;293;308;12
18.02.20;15:20:00;1;238;3994;0;2;1227;7267;4;1309;408;24;3;794;4517;4;864;527;23;4;1092;6311;5;1137;243;21;5;2272;14599;4;1206;987;424;691;29;6;1598;10844;4;838;820;599;575;27;7;1037;8502;4;1087;380;17;8;1750;8384;4;1847;483;22;9;716;4621;4;773;422;16
18.02.20;15:15:00;1;264;3974;0;2;2214;7167;4;2341;418;24;3;1154;4453;4;1238;536;23;4;1669;6223;5;1738;244;21;5;3695;14404;4;2017;1637;423;690;28;6;2882;10698;4;1468;1451;595;573;27;7;887;8359;0;936;244;11;8;1832;8245;4;1927;479;22;9;1153;4555;4;1235;525;20
18.02.20;15:10:00;1;290;3952;0;2;1521;6982;4;1614;399;24;3;905;4357;4;978;522;23;4;1245;6084;5;1297;245;21;5;2717;14131;4;1461;1194;422;675;28;6;2260;10489;4;1144;1154;589;580;27;7;1526;8262;4;1613;481;22;8;1545;8096;4;1632;485;22;9;850;4462;4;921;534;20
18.02.20;15:05:00;1;275;3928;0;2;1301;6853;4;1386;409;25;3;826;4281;4;897;519;23;4;1115;5979;5;1162;244;21;5;2367;13913;4;1263;1024;425;702;28;6;1820;10321;4;955;941;593;575;27;7;1585;8133;4;1677;479;22;8;1596;7966;4;1687;478;22;9;739;4390;4;799;446;17
18.02.20;15:00:00;1;221;3905;0;2;2655;6744;4;2816;428;26;3;1254;4212;4;1345;496;24;4;1540;5886;5;1604;245;21;5;2998;13715;4;1605;1291;426;687;28;6;2643;10170;4;1468;1245;635;624;26;7;2924;8001;4;3079;481;22;8;2542;7834;4;2668;458;21;9;1055;4318;4;1123;415;17
18.02.20;14:55:00;1;219;3887;0;2;2015;6527;4;2131;412;23;3;1209;4114;4;1297;527;22;4;1568;5765;5;1633;247;21;5;3557;13316;4;1943;1548;426;704;28;6;3221;9892;4;1659;1620;589;586;26;7;2332;7775;4;2450;485;21;8;1632;7598;0;1720;397;17;9;1756;4207;4;1865;544;20
18.02.20;14:50:00;1;219;3868;0;2;1143;6349;4;1226;419;23;3;727;4007;4;796;519;22;4;983;5627;5;1024;244;21;5;2055;13017;4;1078;896;423;700;28;6;1618;9658;4;807;806;605;579;26;7;1480;7571;4;1562;483;21;8;1440;7467;4;1527;486;21;9;768;4056;4;838;534;20
18.02.20;14:45:00;1;220;3850;0;2;1518;6254;4;1610;400;24;3;949;3947;4;1024;513;23;4;1213;5546;5;1263;245;21;5;2524;12845;4;1338;1098;424;686;27;6;1957;9527;4;999;981;600;571;26;7;1907;7447;4;2006;482;21;8;1705;7348;4;1794;491;21;9;832;3992;4;895;440;17
18.02.20;14:40:00;1;220;3832;0;2;4030;6128;4;4263;405;22;3;2627;3868;4;2768;517;22;4;3069;5445;5;3197;250;19;5;6245;12615;4;3425;2805;442;726;27;6;4886;9354;4;2507;2460;608;592;26;7;4371;7290;4;4585;488;21;8;4089;7204;4;4292;467;20;9;2521;3911;4;2678;536;20
18.02.20;14:35:00;1;268;3813;0;2;757;5784;4;821;410;20;3;477;3650;4;535;514;21;4;635;5192;5;661;241;19;5;1544;12107;4;789;663;424;685;27;6;1185;8963;4;593;593;597;573;26;7;1047;6949;4;1109;486;21;8;1033;6900;4;1096;475;20;9;548;3727;4;608;528;18
18.02.20;14:30:00;1;252;3791;0;2;748;5721;4;811;405;20;3;470;3610;4;528;513;21;4;640;5139;5;666;242;19;5;1570;11980;4;812;666;419;690;27;6;1187;8867;4;613;613;601;570;26;7;934;6859;4;997;489;21;8;912;6812;4;976;462;20;9;492;3680;4;547;533;19
18.02.20;14:25:00;1;262;3769;0;2;817;5658;4;882;409;21;3;512;3571;4;574;512;21;4;710;5086;5;740;243;20;5;1673;11849;4;875;715;427;691;27;6;1262;8767;4;631;631;589;569;26;7;943;6781;4;1005;479;21;8;929;6736;4;995;473;21;9;499;3639;4;553;528;19
18.02.20;14:20:00;1;264;3747;0;2;916;5590;4;985;408;21;3;575;3528;4;638;519;22;4;800;5026;5;833;244;20;5;1826;11709;4;949;797;426;688;27;6;1388;8661;4;671;656;596;576;26;7;1009;6703;4;1081;481;21;8;1002;6659;4;1062;465;21;9;541;3598;4;599;533;19
18.02.20;14:15:00;1;217;3725;0;2;1193;5514;4;1272;409;21;3;769;3480;4;838;518;22;4;1109;4960;5;1155;243;20;5;2587;11552;4;1387;1119;430;701;27;6;2050;8543;4;1038;1035;591;572;26;7;1448;6618;4;1531;488;21;8;1597;6575;4;1680;501;21;9;346;3552;4;379;272;9